Location: Ferintosh
(52.7647°N, 112.9692°W)
Time: 19:15:11
(UTC+00:00)

A-11 Canister half - Pass Details

Date: 30 May 2024
Orbit: 1515 x 1685 km, 47.2° (Epoch: 12 June)

Event Time Altitude Azimuth Distance (km) Brightness Sun altitude
Rises 14:11:04 0° 285° (WNW) 4,705 11.0 23.5°
Reaches altitude 10° 14:14:48 10° 273° (W) 3,701 10.5 24.0°
Maximum altitude 14:21:50 25° 223° (SW) 2,678 10.1 25.1°
Drops below altitude 10° 14:28:51 10° 173° (S) 3,668 11.1 26.1°
Sets 14:32:33 0° 161° (SSE) 4,654 11.7 26.7°
